Theta_e
323 324 327 331 333 334 336 337 338 338 337 336 336 336 336 337 339 336 337 337 336 335 334 337 342 343 345 346 348 347 347 345 344
322 324 326 329 333 335 335 337 337 338 338 337 337 337 336 337 340 340 339 339 339 336 333 335 337 343 345 347 347 347 346 345 345
321 323 325 329 332 335 336 336 337 338 338 337 337 338 338 339 340 341 341 338 337 340 339 338 341 342 342 346 345 347 345 346 344
319 323 325 328 330 335 336 337 336 337 337 337 335 336 338 339 340 341 342 341 339 338 342 344 342 342 341 341 341 343 346 345 346
317 323 326 328 329 332 335 335 337 338 339 338 337 336 335 339 338 340 341 341 341 343 344 345 343 342 340 340 335 338 344 345 346
315 320 326 327 328 329 333 334 337 339 339 339 339 338 336 337 338 338 340 340 340 341 342 344 344 342 340 340 339 338 343 346 345
319 322 324 327 327 328 331 333 335 338 338 340 340 339 337 337 338 339 340 342 341 343 343 342 344 344 342 341 342 345 346 346 345
322 322 323 324 326 327 329 331 332 335 337 339 339 338 338 337 339 340 341 341 343 344 344 344 343 344 344 345 345 347 345 345 345
319 320 323 325 328 327 328 330 331 333 335 338 339 338 338 339 339 339 341 342 343 344 345 345 342 343 344 344 348 342 340 344 344
320 322 323 323 323 327 330 330 333 333 336 338 339 339 339 339 341 340 341 344 344 344 345 344 343 345 343 344 344 337 336 340 345
319 322 324 325 326 327 328 332 338 334 337 339 339 339 340 341 342 343 343 343 344 346 345 342 344 344 345 343 344 334 333 336 340
321 321 322 323 325 329 327 329 333 339 336 339 340 340 341 342 344 343 344 343 343 343 339 341 344 344 344 342 344 330 328 332 339
319 324 324 324 326 328 329 328 330 333 336 338 338 341 342 343 344 344 343 344 340 338 340 338 340 339 339 336 342 326 325 329 340
319 323 325 328 329 325 324 325 328 325 328 331 338 343 344 345 344 344 344 341 341 341 340 341 339 338 338 339 338 335 322 321 337
318 320 323 326 326 326 326 326 324 325 326 330 334 337 342 343 344 345 343 341 339 340 339 336 336 335 337 336 336 325 321 320 321
316 319 322 325 325 325 325 322 322 321 325 330 329 330 333 341 343 344 342 339 336 335 335 334 332 332 336 335 334 328 320 317 319
314 318 320 323 325 324 324 321 323 324 325 329 328 327 332 342 341 339 338 337 336 333 330 329 329 328 330 334 329 328 327 326 323
314 316 318 321 323 324 325 323 322 324 325 325 329 329 333 341 339 337 330 322 323 327 318 322 327 326 329 330 327 327 320 319 323
314 314 317 319 320 322 324 323 323 324 329 332 330 329 335 338 333 330 327 321 313 304 305 302 302 303 318 317 309 304 303 302 302
315 315 317 317 318 320 322 323 322 325 328 332 334 334 334 331 327 326 323 321 321 315 310 303 300 300 302 305 306 300 299 298 299
Wind_Speed
8 12 15 18 21 18 17 17 16 14 14 12 10 10 10 7 7 5 5 5 4 4 4 4 4 5 5 6 5 5 5 3 3
8 13 16 18 19 18 17 17 18 16 14 13 11 11 8 7 7 7 7 7 5 4 4 4 5 6 6 6 6 6 6 4 4
8 7 11 14 17 18 16 16 15 15 14 15 13 11 10 9 9 7 7 5 6 6 6 5 5 5 5 4 5 6 6 4 3
7 7 8 12 15 17 16 14 16 15 14 13 11 12 11 10 8 8 7 6 6 6 4 6 6 6 5 6 6 6 5 5 5
6 8 11 12 16 15 15 16 16 17 14 15 14 13 12 11 7 8 8 8 7 6 6 5 6 6 6 6 5 6 6 6 5
7 10 10 11 13 15 16 16 16 16 15 13 13 12 12 11 9 9 10 9 7 6 6 6 5 6 7 7 7 6 7 6 6
9 11 10 12 12 15 15 15 15 15 14 12 10 11 11 12 12 12 11 10 7 7 7 7 6 7 7 8 7 7 6 6 6
11 10 9 5 6 12 14 14 13 13 10 13 12 11 11 14 12 11 10 9 8 7 7 8 7 7 6 6 6 6 6 6 6
12 9 12 9 6 4 7 12 14 13 14 14 14 14 15 10 10 12 12 12 9 9 9 8 6 8 9 8 7 10 12 9 7
13 12 10 8 7 7 6 6 12 13 16 14 15 15 13 11 12 12 12 12 9 10 9 7 8 9 8 10 9 12 12 13 5
7 8 12 10 6 4 6 8 4 5 7 12 13 13 14 14 13 14 11 9 10 10 6 7 3 5 8 8 8 11 11 9 6
5 3 4 7 10 6 4 3 3 4 7 10 12 14 13 12 14 13 10 11 11 7 6 6 7 9 12 7 6 9 8 6 5
14 5 6 7 6 6 5 6 5 3 4 7 11 12 13 11 9 10 12 11 9 5 5 6 7 9 10 8 5 3 6 7 3
11 11 10 5 7 5 5 5 6 5 2 2 5 6 8 8 10 12 10 10 6 7 6 6 6 6 5 4 3 3 5 6 3
17 14 13 7 4 4 2 6 4 7 6 6 6 6 5 5 11 11 7 9 5 6 7 6 6 6 5 3 3 4 4 6 6
15 15 12 11 7 6 4 5 5 7 6 5 5 5 7 6 7 7 11 8 7 4 5 6 6 5 6 4 3 3 6 6 5
12 13 11 9 8 8 8 6 7 7 5 6 7 7 8 9 9 7 10 5 6 5 4 4 4 4 4 5 4 4 3 3 3
12 10 8 8 7 8 13 5 7 6 7 8 9 9 6 7 9 8 8 6 4 3 3 2 5 5 5 5 4 4 5 5 4
12 11 8 8 8 8 12 8 8 5 8 9 11 10 6 6 8 8 8 8 5 11 7 4 5 3 4 2 4 9 9 6 7
13 13 9 9 8 10 9 9 10 8 7 5 7 10 6 6 8 8 8 6 8 6 0 5 4 4 3 6 10 10 8 7 5
Wind_Direction
191 186 189 182 183 185 183 181 181 190 183 186 185 186 198 188 192 184 201 205 200 202 197 211 203 203 215 222 208 210 205 205 224
213 188 190 185 182 186 184 181 185 185 188 188 183 191 196 191 197 192 209 214 206 206 207 214 227 224 213 220 212 199 200 219 224
235 228 196 183 184 186 187 186 182 184 186 192 188 180 195 198 200 198 210 194 210 209 208 216 217 225 243 233 228 214 194 216 235
234 227 210 188 186 190 188 181 185 181 185 188 189 187 189 199 198 202 211 206 203 214 221 211 215 223 214 228 222 231 216 224 223
237 220 196 190 186 179 184 183 181 189 193 185 188 192 189 193 185 198 207 222 220 196 217 216 217 213 192 225 227 233 229 224 212
240 213 192 179 175 181 182 185 181 185 193 194 189 181 189 193 191 190 207 218 220 225 210 225 224 209 204 205 218 221 221 219 228
304 254 181 184 178 184 184 188 184 186 184 184 187 178 191 195 201 202 210 213 200 214 211 208 212 215 210 207 213 220 220 213 229
22 7 348 302 206 183 187 187 185 184 184 179 176 178 186 198 199 192 196 200 198 199 213 216 209 213 216 215 215 217 211 220 220
14 23 2 9 31 221 199 192 189 183 187 189 178 186 201 202 192 203 202 199 191 192 210 219 198 205 208 209 219 216 220 205 213
2 354 354 6 8 348 336 224 191 198 192 179 187 195 203 196 189 203 213 205 191 203 208 206 209 218 210 218 219 208 215 218 222
353 351 335 329 329 338 358 338 335 166 174 186 192 201 203 199 189 195 199 196 201 211 202 186 190 297 260 219 221 205 209 211 212
347 204 263 300 309 320 350 314 333 163 178 188 194 195 206 205 191 190 187 193 203 199 181 179 154 238 262 239 222 194 224 175 196
313 300 206 230 268 292 278 274 335 42 115 188 199 202 199 194 205 208 187 199 176 177 172 180 166 183 211 236 231 139 182 186 190
295 298 308 239 228 255 251 275 264 168 231 287 300 214 186 189 184 194 196 172 162 165 161 148 160 166 174 184 192 168 199 191 206
301 306 309 304 293 290 314 243 230 278 278 246 172 271 258 219 211 170 172 159 150 156 147 159 159 154 148 148 162 163 202 220 221
289 291 288 298 282 283 235 208 250 255 243 250 253 237 225 197 217 193 141 149 146 148 158 159 162 173 169 176 188 193 193 198 205
289 282 276 282 298 290 284 189 199 226 255 241 230 205 225 191 172 177 118 132 141 147 153 144 151 167 181 210 194 197 187 189 200
284 276 282 289 285 290 287 270 237 232 241 222 226 230 222 210 140 137 114 85 84 137 61 153 170 192 177 188 204 203 165 177 186
274 279 275 280 282 276 276 266 251 241 270 278 253 230 207 189 145 127 126 129 107 41 69 79 101 129 188 120 106 139 155 171 173
268 272 250 253 250 263 267 256 240 219 247 336 226 216 152 141 114 128 140 143 143 146 118 112 82 50 150 137 155 156 160 175 162